Regional Weather Roundup
Issued by NWS

Home | Current Version | Previous Version | Graphics & Text | Print | Product List | Glossary Off
Versions: 1 2 3 4 5 6 7 8 9 10 11 12 13 14 15 16 17 18 19 20 21 22 23 24 25 26 27 28 29 30 31 32 33 34 35 36 37 38 39 40 41 42 43 44 45 46 47 48 49 50

000
ASUS43 KDMX 270907
RWRIA

WEATHER ROUNDUP FOR IOWA
NATIONAL WEATHER SERVICE DES MOINES IA
400 AM CDT MON APR 27 2015

NOTE: "FAIR" INDICATES FEW OR NO CLOUDS BELOW 12,000 FEET WITH NO
SIGNIFICANT WEATHER AND/OR OBSTRUCTIONS TO VISIBILITY.

* - THESE STATIONS ARE NOT NWS STATIONS...THUS NOT UNDER NWS
QUALITY CONTROL.  THEY ALSO DO NOT REPORT WEATHER SUCH
AS PRECIPITATION OR FOG.

IAZ001>003-012>014-020>022-031>034-043>046-271000-
   NORTHWEST IOWA

CITY           SKY/WX    TMP DP  RH WIND       PRES   REMARKS
CARROLL *      PTCLDY    37  32  81 NW5       30.12S WCI  34
CHEROKEE *     CLEAR     36  34  93 NE5       30.15S WCI  32
DENISON *      CLEAR     37  36  93 CALM      30.11R
LE MARS *      CLEAR     37  32  81 N5        30.16S WCI  34
ORANGE CITY *  CLEAR     43  28  56 E5        30.16R
SHELDON *      CLEAR     34  28  80 CALM      30.15R
SIOUX CITY     CLEAR     36  29  75 NW5       30.14S WCI  32
SPENCER        CLEAR     29  25  85 N5        30.16R WCI  24
STORM LAKE *   CLEAR     39  30  70 N7        30.15S WCI  34
$$

IAZ055>058-069>071-079>083-090>094-271000-
   SOUTHWEST IOWA

CITY           SKY/WX    TMP DP  RH WIND       PRES   REMARKS
ATLANTIC *     CLEAR     36  34  93 CALM      30.14R
AUDUBON *      CLEAR     34  30  86 CALM      30.13R
CLARINDA *     CLEAR     37  36  93 CALM      30.13R
COUNCIL BLFS * CLEAR     45  32  61 N5        30.12R
CRESTON *      CLEAR     41  32  70 NE8       30.11S
HARLAN  *      CLEAR     37  37 100 CALM      30.17R
LAMONI         PTCLDY    43  32  65 CALM      30.10R
RED OAK *      CLEAR     36  34  93 CALM      30.12S
SHENANDOAH *   CLEAR     37  36  93 NE5       30.13R WCI  34
$$

IAZ047>049-059>061-072>074-084-271000-
   CENTRAL IOWA

CITY           SKY/WX    TMP DP  RH WIND       PRES   REMARKS
AMES           CLEAR     39  31  72 N6        30.10F WCI  35
ANKENY *       CLEAR     36  32  87 N3        30.11R
CHARITON *     CLEAR     37  34  87 W5        30.11R WCI  34
DES MOINES     CLEAR     42  33  70 CALM      30.11R
GRINNELL*      CLEAR     37  30  75 NW6       30.09F WCI  33
KNOXVILLE *    CLEAR     39  36  87 NW3       30.09R
MARSHALLTOWN   CLEAR     35  29  78 N10       30.09F WCI  27
PELLA *        CLEAR     41  36  81 N3        30.11R
PERRY *          N/A     41  34  75 N6        30.11R
$$

IAZ004>006-015-016-023>025-035-036-271000-
   NORTH CENTRAL IOWA

CITY           SKY/WX    TMP DP  RH WIND       PRES   REMARKS
ALGONA *       CLEAR     39  30  70 N6        30.16R WCI  35
CLARION *      CLEAR     36  30  80 N6        30.14R WCI  31
ESTHERVILLE    CLEAR     35  25  66 N10       30.16R WCI  27
FORT DODGE *   CLEAR     36  28  75 N3        30.13S
MASON CITY     CLEAR     33  27  78 N9        30.14F WCI  25
FOREST CITY *  CLEAR     37  30  75 CALM      30.14S
IOWA FALLS *     N/A     37  28  70 CALM      30.12S
$$

IAZ007>011-017>019-026>030-037>042-050>054-066-271000-
   NORTHEAST IOWA

CITY           SKY/WX    TMP DP  RH WIND       PRES   REMARKS
CEDAR RAPIDS   CLEAR     36  31  82 NW8       30.07S WCI  30
CHARLES CITY * CLEAR     41  28  60 NE10      30.12F
CLINTON *      CLEAR     36  30  80 E10       30.11R WCI  28
DECORAH *      CLEAR     41  27  56 CALM      30.12R
DUBUQUE        CLEAR     39  29  67 NE9       30.10R WCI  33
MONTICELLO *   CLEAR     34  34 100 CALM      30.09R
OELWEIN *      CLEAR     41  30  65 NE12      30.10F
WATERLOO       CLEAR     34  29  82 NW6       30.10S WCI  29
$$

IAZ064-065-067-068-078-271000-
   EAST CENTRAL IOWA

CITY           SKY/WX    TMP DP  RH WIND       PRES   REMARKS
DAVENPORT      CLEAR     37  31  78 E8        30.07S WCI  31
IOWA CITY      CLEAR     39  32  76 N6        30.08S WCI  35
MT. PLEASANT * CLEAR     41  34  75 W5        30.08R
MUSCATINE *    CLEAR     43  32  65 NW3       30.07S
QUAD CITIES    CLEAR     34  32  92 CALM      30.07S
$$

IAZ062-063-075>077-085>089-095>099-271000-
   SOUTHEAST IOWA

CITY           SKY/WX    TMP DP  RH WIND       PRES   REMARKS
BURLINGTON     CLEAR     42  34  73 NW7       30.07R
FAIRFIELD *    CLEAR     39  32  75 NW8       30.08R WCI  34
FORT MADISON * CLEAR     39  34  81 W5        30.09R
KEOKUK *       CLEAR     39  36  87 W3        30.07R
OSKALOOSA *      N/A     39  32  75 N7        30.09R WCI  34
CENTERVILLE *  CLEAR     36  34  93 NW3       30.11S
OTTUMWA        CLEAR     36  31  82 NW6       30.09R WCI  31
WASHINGTON *   CLEAR     41  37  87 NW8       30.07S
$$

ABBREVIATIONS USED IN REMARKS
   TC - TEMPERATURES IN CELSIUS
  WCI - WIND CHILL INDEX
   HX - HEAT INDEX
  VSB - VISIBILITY
$$




USA.gov is the U.S. government's official web portal to all federal, state and local government web resources and services.